Flag for U.S.A. Weather past 2 weeks in Chico, California, U.S.A.

Now
39 °F

Passing clouds.


Feels Like: 35 °F
Forecast: 40 / 68 °F
Wind: 6 mph from North

Location: Chico Municipal

Current Time: Mar 5, 2015 at 7:23:50 AM

Latest Report: Mar 5, 2015 at 6:47 AM


Visibility: 80 mi

Pressure: 30.33 "Hg

Humidity: 87%

Dew point: 36 °F

Location of ChicoLocation

Historic Weather in Chico — Graph

°F

Chico temperature yesterday

Maximum temperature yesterday: 66 °F (at 4:47 PM)
Minimum temperature yesterday: 36 °F (at 4:55 AM)
Average temperature yesterday: 48 °F

Past Weeks' High & Low Weather Summary

 TemperatureHumidityPressure
High72 °F (Feb 20, 2:59 PM)100% (Feb 18, 5:15 AM)30.36 "Hg (Feb 18, 5:15 AM)
Low36 °F (Feb 24, 3:15 AM)12% (Feb 22, 6:15 PM)29.64 "Hg (Feb 27, 4:47 PM)
Average50 °F63%30.02 "Hg
* Reported Feb 18 5:15 AM — Mar 5 5:35 AM, Chico, Weather by CustomWeather, © 2015

Note: Actual official high and low records may vary slightly from our data, if they occured in-between our weather recording intervals... More about our weather records

Advertising

Chico weather history for previous 24 hours

 ConditionsComfort  
Time TempWeatherWind HumidityBarometerVisibility
5:35 AM
Thu, Mar 5
39 °FClear.No wind81%30.31 "Hg10 mi
5:15 AM37 °FClear.5 mph87%30.30 "Hg10 mi
4:55 AM37 °FClear.6 mph87%30.30 "Hg10 mi
4:15 AM39 °FClear.No wind87%30.29 "Hg10 mi
3:55 AM39 °FClear.No wind87%30.28 "Hg10 mi
3:35 AM39 °FClear.No wind87%30.28 "Hg10 mi
3:15 AM41 °FClear.No wind81%30.28 "Hg10 mi
2:55 AM45 °FClear.No wind71%30.28 "Hg10 mi
2:35 AM45 °FClear.No wind71%30.27 "Hg10 mi
2:15 AM45 °FClear.No wind71%30.27 "Hg10 mi
1:55 AM45 °FClear.No wind71%30.27 "Hg10 mi
1:35 AM41 °FClear.No wind81%30.27 "Hg10 mi
1:15 AM43 °FClear.No wind76%30.27 "Hg10 mi
12:55 AM43 °FClear.No wind76%30.26 "Hg10 mi
12:35 AM45 °FClear.No wind71%30.26 "Hg10 mi
12:15 AM50 °FClear.No wind58%30.25 "Hg10 mi
11:55 PM
Wed, Mar 4
50 °FClear.5 mph58%30.25 "Hg10 mi
11:35 PM52 °FClear.No wind54%30.25 "Hg10 mi
11:15 PM52 °FClear.6 mph54%30.25 "Hg10 mi
10:55 PM52 °FClear.5 mph54%30.24 "Hg10 mi
10:15 PM52 °FClear.7 mph50%30.24 "Hg10 mi
9:55 PM52 °FClear.7 mph50%30.23 "Hg10 mi
9:35 PM54 °FClear.6 mph47%30.23 "Hg10 mi
9:15 PM52 °FClear.7 mph50%30.22 "Hg10 mi
8:55 PM54 °FClear.6 mph51%30.21 "Hg10 mi
8:35 PM54 °FClear.7 mph51%30.20 "Hg10 mi
8:15 PM54 °FClear.6 mph51%30.20 "Hg10 mi
7:35 PM55 °FClear.No wind47%30.18 "Hg10 mi
7:15 PM57 °FClear.5 mph44%30.18 "Hg10 mi
6:55 PM59 °FClear.No wind39%30.17 "Hg10 mi
6:15 PM63 °FClear.6 mph34%30.16 "Hg10 mi
5:55 PM63 °FSunny.7 mph32%30.15 "Hg10 mi
4:47 PM66 °FPassing clouds.6 mph22%30.14 "Hg80 mi
2:47 PM64 °FSunny.9 mph24%30.13 "Hg80 mi
1:47 PM64 °FSunny.6 mph24%30.13 "Hg80 mi
11:47 AM61 °FSunny.No wind27%30.16 "Hg80 mi
10:47 AM57 °FSunny.No wind36%30.16 "Hg80 mi
9:47 AM50 °FPassing clouds.6 mph47%30.15 "Hg80 mi
8:47 AM46 °FPassing clouds.6 mph57%30.14 "Hg80 mi
7:47 AM39 °FPassing clouds.6 mph65%30.10 "Hg80 mi
Weather by CustomWeather, © 2015

See weather overviewHow to use our weather pages